Location: Unspecified
(48.2082°N, 0.0000°E)
Time: 18:39:22
(UTC+00:00)

Transit 4A - Pass Details

Date: 21 June 2019
Orbit: 867 x 978 km, 66.8° (Epoch: 18 October)

Event Time Altitude Azimuth Distance (km) Brightness Sun altitude
Rises 12:28:08 0° 299° (WNW) 3,673 11.0 64.7°
Reaches altitude 10° 12:32:08 10° 323° (NW) 2,735 10.3 64.5°
Maximum altitude 12:35:29 14° 355° (N) 2,426 10.0 64.3°
Drops below altitude 10° 12:38:50 10° 27° (NNE) 2,736 10.2 64.2°
Sets 12:42:51 0° 51° (NE) 3,676 10.8 63.9°
